User: anonymous   Login
Location: Unspecified
(0.0000°N, 0.0000°E)
Time: 15:48:24
(UTC+00:00)
Language:

Meteor 2-16 - Orbit

View from above orbital plane
View from above orbital plane
View from above satellite
View from above satellite

Ground track
Ground track

The orbit data is extracted from the following two-line orbital elements,

1 18312U 87068A   18198.12412112  .00000049  00000-0  30829-4 0  9994
2 18312  82.5559  71.0960 0011166 246.0218 113.9774 13.84729063562099
Epoch (UTC): 17 July 2018 02:58:44
Eccentricity: 0.0011166
inclination: 82.5559°
perigee height: 939 km
apogee height: 955 km
right ascension of ascending node: 71.0960°
argument of perigee: 246.0218°
revolutions per day: 13.84729063
mean anomaly at epoch: 113.9774°
orbit number at epoch: 56209

The dashed part of the orbit path shows where the satellite is in the earth's shadow,  

DLR